Location: Laverne
(36.7100°N, 99.8930°W)
Time: 07:09:04
(UTC-06:00)

USA 267 - Pass Details

Date: 19 October 2017
Orbit: 1099 x 1109 km, 123.0° (Epoch: 17 November)

Event Time Altitude Azimuth Distance (km) Brightness Sun altitude
Rises 05:20:05 0° 139° (SE) 3,907 6.5 -30.9°
Reaches altitude 10° 05:22:34 10° 141° (SE) 2,951 5.8 -30.4°
Maximum altitude 05:29:05 77° 227° (SW) 1,129 3.1 -29.1°
Enters shadow 05:29:29 74° 263° (W) 1,142 3.0 -29.0°
